TimeMST,TemperatureF,Dew PointF,Humidity,Sea Level PressureIn,VisibilityMPH,Wind Direction,Wind SpeedMPH,Gust SpeedMPH,PrecipitationIn,Events,Conditions,WindDirDegrees,DateUTC
12:15 AM,26.6,12.2,55,30.00,-9999.0,SSE,10.4,-,N/A,,Clear,150,2013-02-13 07:15:00
12:35 AM,23.0,10.4,59,30.00,-9999.0,SSE,10.4,-,N/A,,Clear,160,2013-02-13 07:35:00
12:55 AM,21.2,10.4,63,30.00,-9999.0,SSE,6.9,-,N/A,,Clear,150,2013-02-13 07:55:00
1:15 AM,19.4,8.6,63,29.99,-9999.0,ESE,12.7,-,N/A,,Clear,120,2013-02-13 08:15:00
1:35 AM,19.4,10.4,68,29.98,-9999.0,SE,12.7,-,N/A,,Clear,130,2013-02-13 08:35:00
1:55 AM,17.6,6.8,63,29.98,-9999.0,SE,10.4,-,N/A,,Clear,140,2013-02-13 08:55:00
2:15 AM,17.6,8.6,68,29.97,-9999.0,SE,13.8,-,N/A,,Clear,130,2013-02-13 09:15:00
2:35 AM,17.6,8.6,68,29.96,-9999.0,SE,15.0,-,N/A,,Clear,130,2013-02-13 09:35:00
2:55 AM,17.6,8.6,68,29.96,-9999.0,SE,9.2,-,N/A,,Clear,140,2013-02-13 09:55:00
3:15 AM,19.4,10.4,68,29.96,-9999.0,SSE,4.6,-,N/A,,Clear,160,2013-02-13 10:15:00
3:35 AM,24.8,12.2,59,29.97,-9999.0,West,5.8,-,N/A,,Clear,280,2013-02-13 10:35:00
3:55 AM,24.8,10.4,54,29.97,-9999.0,WNW,8.1,-,N/A,,Clear,300,2013-02-13 10:55:00
4:15 AM,24.8,12.2,59,29.97,-9999.0,NW,8.1,-,N/A,,Clear,320,2013-02-13 11:15:00
4:35 AM,28.4,12.2,51,29.96,-9999.0,WNW,8.1,-,N/A,,Clear,300,2013-02-13 11:35:00
4:55 AM,30.2,10.4,44,29.96,-9999.0,NW,4.6,-,N/A,,Clear,310,2013-02-13 11:55:00
5:15 AM,32.0,10.4,41,29.97,-9999.0,WNW,4.6,-,N/A,,Clear,290,2013-02-13 12:15:00
5:35 AM,26.6,12.2,55,29.97,-9999.0,SSW,10.4,-,N/A,,Clear,200,2013-02-13 12:35:00
5:55 AM,24.8,12.2,59,29.97,-9999.0,SW,8.1,-,N/A,,Clear,220,2013-02-13 12:55:00
6:35 AM,28.4,12.2,51,29.98,-9999.0,WSW,6.9,-,N/A,,Clear,250,2013-02-13 13:35:00
6:55 AM,30.2,12.2,47,29.98,-9999.0,WSW,10.4,-,N/A,,Clear,250,2013-02-13 13:55:00
7:15 AM,30.2,12.2,47,29.98,-9999.0,WNW,11.5,-,N/A,,Clear,290,2013-02-13 14:15:00
7:35 AM,30.2,12.2,47,29.98,-9999.0,WNW,13.8,-,N/A,,Clear,290,2013-02-13 14:35:00
7:55 AM,30.2,12.2,47,29.98,-9999.0,West,8.1,21.9,N/A,,Clear,280,2013-02-13 14:55:00
8:15 AM,30.2,12.2,47,29.98,-9999.0,West,9.2,-,N/A,,Clear,280,2013-02-13 15:15:00
8:35 AM,30.2,12.2,47,29.99,-9999.0,West,6.9,-,N/A,,Clear,260,2013-02-13 15:35:00
9:15 AM,30.2,14.0,51,29.99,-9999.0,SSW,10.4,-,N/A,,Clear,210,2013-02-13 16:15:00
9:35 AM,30.2,14.0,51,29.99,-9999.0,SSW,12.7,-,N/A,,Clear,200,2013-02-13 16:35:00
9:55 AM,30.2,14.0,51,29.98,-9999.0,South,10.4,-,N/A,,Clear,190,2013-02-13 16:55:00
10:15 AM,32.0,14.0,48,29.99,-9999.0,South,9.2,-,N/A,,Clear,180,2013-02-13 17:15:00
10:35 AM,32.0,14.0,48,29.99,-9999.0,South,4.6,-,N/A,,Clear,170,2013-02-13 17:35:00
10:55 AM,32.0,12.2,44,30.00,-9999.0,SE,4.6,-,N/A,,Clear,130,2013-02-13 17:55:00
11:15 AM,32.0,12.2,44,30.00,-9999.0,Calm,Calm,-,N/A,,Clear,0,2013-02-13 18:15:00
11:35 AM,33.8,12.2,41,30.00,10.0,Calm,Calm,-,N/A,,Clear,0,2013-02-13 18:35:00
11:55 AM,32.0,12.2,44,30.00,10.0,NW,9.2,-,N/A,,Clear,310,2013-02-13 18:55:00
12:15 PM,32.0,14.0,48,29.99,10.0,NW,11.5,-,N/A,,Clear,310,2013-02-13 19:15:00
12:35 PM,32.0,14.0,48,29.98,10.0,NW,13.8,-,N/A,,Clear,310,2013-02-13 19:35:00
12:55 PM,32.0,14.0,48,29.98,10.0,NW,10.4,-,N/A,,Clear,310,2013-02-13 19:55:00
1:15 PM,32.0,14.0,48,29.97,10.0,NW,10.4,-,N/A,,Clear,310,2013-02-13 20:15:00
1:35 PM,32.0,14.0,48,29.98,10.0,WNW,8.1,-,N/A,,Clear,290,2013-02-13 20:35:00
1:55 PM,32.0,12.2,44,29.98,10.0,WNW,4.6,-,N/A,,Clear,290,2013-02-13 20:55:00
2:15 PM,32.0,12.2,44,29.97,10.0,Calm,Calm,-,N/A,,Clear,0,2013-02-13 21:15:00
2:35 PM,32.0,12.2,44,29.98,10.0,WNW,4.6,-,N/A,,Clear,290,2013-02-13 21:35:00
2:55 PM,32.0,14.0,48,29.98,10.0,West,9.2,-,N/A,,Clear,280,2013-02-13 21:55:00
3:15 PM,32.0,14.0,48,29.98,10.0,WNW,5.8,-,N/A,,Clear,290,2013-02-13 22:15:00
3:35 PM,32.0,14.0,48,29.98,10.0,WNW,12.7,16.1,N/A,,Scattered Clouds,290,2013-02-13 22:35:00
3:55 PM,32.0,14.0,48,29.99,10.0,WNW,10.4,17.3,N/A,,Clear,290,2013-02-13 22:55:00
4:15 PM,32.0,14.0,48,30.00,10.0,NNW,9.2,-,N/A,,Clear,330,2013-02-13 23:15:00
4:35 PM,30.2,17.6,60,30.00,10.0,NNW,15.0,-,N/A,,Clear,330,2013-02-13 23:35:00
4:55 PM,28.4,17.6,64,30.00,10.0,NNW,12.7,-,N/A,,Clear,340,2013-02-13 23:55:00
5:15 PM,28.4,17.6,64,30.00,10.0,NNW,12.7,-,N/A,,Clear,340,2013-02-14 00:15:00
5:35 PM,28.4,17.6,64,30.00,10.0,NNW,13.8,-,N/A,,Clear,340,2013-02-14 00:35:00
5:55 PM,26.6,17.6,69,30.00,10.0,NNW,16.1,-,N/A,,Clear,340,2013-02-14 00:55:00
6:15 PM,26.6,17.6,69,30.02,10.0,NNW,12.7,-,N/A,,Clear,340,2013-02-14 01:15:00
6:35 PM,26.6,17.6,69,30.02,10.0,NNW,17.3,-,N/A,,Clear,340,2013-02-14 01:35:00
6:55 PM,24.8,17.6,74,30.02,10.0,NNW,11.5,-,N/A,,Clear,340,2013-02-14 01:55:00
7:15 PM,26.6,17.6,69,30.03,10.0,NNW,11.5,-,N/A,,Clear,340,2013-02-14 02:15:00
7:35 PM,24.8,17.6,74,30.03,10.0,NNW,10.4,-,N/A,,Clear,340,2013-02-14 02:35:00
7:55 PM,24.8,17.6,74,30.03,10.0,North,15.0,-,N/A,,Clear,360,2013-02-14 02:55:00
8:15 PM,24.8,17.6,74,30.03,10.0,North,13.8,-,N/A,,Scattered Clouds,360,2013-02-14 03:15:00
8:35 PM,23.0,19.4,86,30.03,10.0,North,16.1,-,N/A,,Scattered Clouds,360,2013-02-14 03:35:00
8:55 PM,23.0,19.4,86,30.04,10.0,NNW,10.4,-,N/A,,Scattered Clouds,330,2013-02-14 03:55:00
9:15 PM,23.0,19.4,86,30.04,10.0,NNW,11.5,-,N/A,,Clear,340,2013-02-14 04:15:00
9:35 PM,23.0,21.2,93,30.04,10.0,NNW,16.1,-,N/A,,Clear,340,2013-02-14 04:35:00
9:55 PM,23.0,21.2,93,30.04,10.0,NNW,13.8,-,N/A,,Scattered Clouds,340,2013-02-14 04:55:00
10:15 PM,23.0,21.2,93,30.05,10.0,North,15.0,-,N/A,,Scattered Clouds,360,2013-02-14 05:15:00
10:35 PM,23.0,21.2,93,30.05,10.0,North,15.0,-,N/A,,Clear,360,2013-02-14 05:35:00
10:55 PM,23.0,21.2,93,30.05,10.0,North,11.5,-,N/A,,Clear,360,2013-02-14 05:55:00
11:15 PM,23.0,21.2,93,30.05,10.0,North,13.8,-,N/A,,Scattered Clouds,360,2013-02-14 06:15:00
11:35 PM,23.0,21.2,93,30.06,10.0,North,16.1,-,N/A,,Mostly Cloudy,350,2013-02-14 06:35:00
11:55 PM,23.0,21.2,93,30.06,10.0,North,15.0,-,N/A,,Overcast,360,2013-02-14 06:55:00